Time,TemperatureF,DewpointF,PressureIn,WindDirection,WindDirectionDegrees,WindSpeedMPH,WindSpeedGustMPH,Humidity,HourlyPrecipIn,Conditions,Clouds,dailyrainin,SoftwareType,DateUTC
2013-10-27 00:04:00,37.0,28.0,-100.00,NW,305,1.0,1.0,70,0.00,,,-99.99,,2013-10-27 05:04:00,
2013-10-27 00:43:00,36.0,27.0,-100.00,NW,305,0.0,1.0,71,0.00,,,-99.99,,2013-10-27 05:43:00,
2013-10-27 00:52:00,36.0,27.0,-100.00,NW,305,0.0,1.0,71,0.00,,,-99.99,,2013-10-27 05:52:00,
2013-10-27 01:01:00,36.0,27.0,-100.00,NW,305,0.0,1.0,71,0.00,,,-99.99,,2013-10-27 06:01:00,
2013-10-27 01:10:00,35.0,28.0,-100.00,West,270,0.0,2.0,76,0.00,,,-99.99,,2013-10-27 06:10:00,
2013-10-27 01:42:00,35.0,28.0,-100.00,West,270,0.0,2.0,76,0.00,,,-99.99,,2013-10-27 06:42:00,
2013-10-27 01:53:00,35.0,28.0,-100.00,West,270,0.0,2.0,76,0.00,,,-99.99,,2013-10-27 06:53:00,
2013-10-27 02:02:00,35.0,28.0,-100.00,West,270,0.0,2.0,76,0.00,,,-99.99,,2013-10-27 07:02:00,
2013-10-27 02:42:00,34.0,28.0,-100.00,West,270,1.0,1.0,80,0.00,,,-99.99,,2013-10-27 07:42:00,
2013-10-27 02:52:00,34.0,28.0,-100.00,West,270,1.0,1.0,80,0.00,,,-99.99,,2013-10-27 07:52:00,
2013-10-27 03:03:00,34.0,28.0,-100.00,West,270,1.0,1.0,80,0.00,,,-99.99,,2013-10-27 08:03:00,
2013-10-27 03:10:00,33.0,29.0,-100.00,WSW,250,0.0,2.0,85,0.00,,,-99.99,,2013-10-27 08:10:00,
2013-10-27 03:42:00,33.0,29.0,-100.00,WSW,250,0.0,2.0,85,0.00,,,-99.99,,2013-10-27 08:42:00,
2013-10-27 03:52:00,33.0,29.0,-100.00,WSW,250,0.0,2.0,85,0.00,,,-99.99,,2013-10-27 08:52:00,
2013-10-27 04:02:00,33.0,29.0,-100.00,WSW,250,0.0,2.0,85,0.00,,,-99.99,,2013-10-27 09:02:00,
2013-10-27 04:43:00,32.0,30.0,-100.00,WNW,290,1.0,2.0,90,0.00,,,-99.99,,2013-10-27 09:43:00,
2013-10-27 04:54:00,32.0,30.0,-100.00,WNW,290,1.0,2.0,90,0.00,,,-99.99,,2013-10-27 09:54:00,
2013-10-27 05:03:00,32.0,30.0,-100.00,WNW,290,1.0,2.0,90,0.00,,,-99.99,,2013-10-27 10:03:00,
2013-10-27 05:42:00,33.0,31.0,-100.00,WNW,295,1.0,4.0,91,0.00,,,-99.99,,2013-10-27 10:42:00,
2013-10-27 06:42:00,31.0,29.0,-100.00,WNW,295,1.0,2.0,95,0.00,,,-99.99,,2013-10-27 11:42:00,
2013-10-27 06:52:00,31.0,29.0,-100.00,WNW,295,1.0,2.0,95,0.00,,,-99.99,,2013-10-27 11:52:00,
2013-10-27 07:01:00,31.0,29.0,-100.00,WNW,295,1.0,2.0,95,0.00,,,-99.99,,2013-10-27 12:01:00,
2013-10-27 07:42:00,30.0,29.0,-100.00,WNW,290,1.0,4.0,98,0.00,,,-99.99,,2013-10-27 12:42:00,
2013-10-27 07:52:00,30.0,29.0,-100.00,WNW,290,1.0,4.0,98,0.00,,,-99.99,,2013-10-27 12:52:00,
2013-10-27 08:02:00,30.0,29.0,-100.00,WNW,290,1.0,4.0,98,0.00,,,-99.99,,2013-10-27 13:02:00,
2013-10-27 10:10:00,43.0,29.0,-100.00,West,280,3.0,9.0,58,0.00,,,-99.99,,2013-10-27 15:10:00,
2013-10-27 10:54:00,43.0,29.0,-100.00,West,280,3.0,9.0,58,0.00,,,-99.99,,2013-10-27 15:54:00,
2013-10-27 11:04:00,43.0,29.0,-100.00,West,280,3.0,9.0,58,0.00,,,-99.99,,2013-10-27 16:04:00,
2013-10-27 11:10:00,46.0,28.0,-100.00,WNW,295,4.0,15.0,50,0.00,,,-99.99,,2013-10-27 16:10:00,
2013-10-27 11:43:00,46.0,28.0,-100.00,WNW,295,4.0,15.0,50,0.00,,,-99.99,,2013-10-27 16:43:00,
2013-10-27 11:53:00,46.0,28.0,-100.00,WNW,295,4.0,15.0,50,0.00,,,-99.99,,2013-10-27 16:53:00,
2013-10-27 12:04:00,46.0,28.0,-100.00,WNW,295,4.0,15.0,50,0.00,,,-99.99,,2013-10-27 17:04:00,
2013-10-27 13:43:00,51.0,28.0,-100.00,WNW,290,3.0,9.0,41,0.00,,,-99.99,,2013-10-27 18:43:00,
2013-10-27 13:52:00,51.0,28.0,-100.00,WNW,290,3.0,9.0,41,0.00,,,-99.99,,2013-10-27 18:52:00,
2013-10-27 14:02:00,51.0,28.0,-100.00,WNW,290,3.0,9.0,41,0.00,,,-99.99,,2013-10-27 19:02:00,
2013-10-27 14:10:00,54.0,29.0,-100.00,SW,220,2.0,12.0,38,0.00,,,-99.99,,2013-10-27 19:10:00,
2013-10-27 14:42:00,54.0,29.0,-100.00,SW,220,2.0,12.0,38,0.00,,,-99.99,,2013-10-27 19:42:00,
2013-10-27 14:52:00,54.0,29.0,-100.00,SW,220,2.0,12.0,38,0.00,,,-99.99,,2013-10-27 19:52:00,
2013-10-27 15:02:00,54.0,29.0,-100.00,SW,220,2.0,12.0,38,0.00,,,-99.99,,2013-10-27 20:02:00,
2013-10-27 15:10:00,54.0,28.0,-100.00,West,260,4.0,12.0,36,0.00,,,-99.99,,2013-10-27 20:10:00,
2013-10-27 15:43:00,54.0,28.0,-100.00,West,260,4.0,12.0,36,0.00,,,-99.99,,2013-10-27 20:43:00,
2013-10-27 15:52:00,54.0,28.0,-100.00,West,260,4.0,12.0,36,0.00,,,-99.99,,2013-10-27 20:52:00,
2013-10-27 16:02:00,54.0,28.0,-100.00,West,260,4.0,12.0,36,0.00,,,-99.99,,2013-10-27 21:02:00,
2013-10-27 16:44:00,55.0,27.0,-100.00,West,280,2.0,8.0,35,0.00,,,-99.99,,2013-10-27 21:44:00,
2013-10-27 16:54:00,55.0,27.0,-100.00,West,280,2.0,8.0,35,0.00,,,-99.99,,2013-10-27 21:54:00,
2013-10-27 17:04:00,55.0,27.0,-100.00,West,280,2.0,8.0,35,0.00,,,-99.99,,2013-10-27 22:04:00,
2013-10-27 17:10:00,53.0,27.0,-100.00,WSW,240,2.0,8.0,37,0.00,,,-99.99,,2013-10-27 22:10:00,
2013-10-27 17:43:00,53.0,27.0,-100.00,WSW,240,2.0,8.0,37,0.00,,,-99.99,,2013-10-27 22:43:00,
2013-10-27 17:54:00,53.0,27.0,-100.00,WSW,240,2.0,8.0,37,0.00,,,-99.99,,2013-10-27 22:54:00,
2013-10-27 18:03:00,53.0,27.0,-100.00,WSW,240,2.0,8.0,37,0.00,,,-99.99,,2013-10-27 23:03:00,
2013-10-27 18:43:00,50.0,28.0,-100.00,NNW,330,1.0,4.0,42,0.00,,,-99.99,,2013-10-27 23:43:00,
2013-10-27 18:52:00,50.0,28.0,-100.00,NNW,330,1.0,4.0,42,0.00,,,-99.99,,2013-10-27 23:52:00,
2013-10-27 19:02:00,50.0,28.0,-100.00,NNW,330,1.0,4.0,42,0.00,,,-99.99,,2013-10-28 00:02:00,
2013-10-27 19:10:00,48.0,29.0,-100.00,West,275,1.0,5.0,46,0.00,,,-99.99,,2013-10-28 00:10:00,
2013-10-27 19:43:00,48.0,29.0,-100.00,West,275,1.0,5.0,46,0.00,,,-99.99,,2013-10-28 00:43:00,
2013-10-27 19:52:00,48.0,29.0,-100.00,West,275,1.0,5.0,46,0.00,,,-99.99,,2013-10-28 00:52:00,
2013-10-27 20:01:00,48.0,29.0,-100.00,West,275,1.0,5.0,46,0.00,,,-99.99,,2013-10-28 01:01:00,
2013-10-27 20:42:00,47.0,30.0,-100.00,SW,225,1.0,4.0,50,0.00,,,-99.99,,2013-10-28 01:42:00,
2013-10-27 22:12:00,46.0,31.0,-100.00,East,80,7.0,14.0,55,0.00,,,-99.99,,2013-10-28 03:12:00,
2013-10-27 23:10:00,43.0,32.0,-100.00,East,85,6.0,15.0,65,0.00,,,-99.99,,2013-10-28 04:10:00,
2013-10-27 23:43:00,43.0,32.0,-100.00,East,85,6.0,15.0,65,0.00,,,-99.99,,2013-10-28 04:43:00,
2013-10-27 23:53:00,43.0,32.0,-100.00,East,85,6.0,15.0,65,0.00,,,-99.99,,2013-10-28 04:53:00,